Volver al catálogo

COSMOS 252 DEB

ActivoLEO
NORAD 15519·DEBRIS·🇷🇺 Russia

Lanzado Nov 1, 1968 desde Baikonur Cosmodrome

Loading…

Próximos Pases (próximas 24 horas)

TLE

ActualizadoSource: Space-Track

Época: Sep 14, 2026, 10:38 UTC

1 15519U 68097EF  26257.44307883  .00000220  00000-0  14278-3 0  9999
2 15519  62.3769  51.4934 0869280 304.9511  47.2782 13.07464500831246

Sigue COSMOS 252 DEB en tiempo real con AllMySat

Download on the App Store